Time,TemperatureF,DewpointF,PressureIn,WindDirection,WindDirectionDegrees,WindSpeedMPH,WindSpeedGustMPH,Humidity,HourlyPrecipIn,Conditions,Clouds,dailyrainin,SolarRadiationWatts/m^2,SoftwareType,DateUTC
2013-05-09 00:05:00,64.0,58.4,29.91,SE,141,2.0,2.0,82,0.00,,,0.00,0,Wunderground v.1.15,2013-05-09 05:05:00,
2013-05-09 00:20:00,64.4,58.4,29.91,SE,130,3.0,3.0,81,0.00,,,0.00,0,Wunderground v.1.15,2013-05-09 05:20:00,
2013-05-09 00:25:00,64.5,58.5,29.92,SE,131,1.0,9.0,81,0.00,,,0.00,0,Wunderground v.1.15,2013-05-09 05:25:00,
2013-05-09 00:30:00,64.8,59.2,29.92,SE,135,0.0,0.0,82,0.00,,,0.00,0,Wunderground v.1.15,2013-05-09 05:30:00,
2013-05-09 00:40:00,65.9,60.2,29.92,ESE,102,0.0,0.0,82,0.00,,,0.01,0,Wunderground v.1.15,2013-05-09 05:40:00,
2013-05-09 00:45:00,65.6,59.6,29.92,NE,34,1.0,1.0,81,0.00,,,0.01,0,Wunderground v.1.15,2013-05-09 05:45:00,
2013-05-09 00:50:00,65.0,59.4,29.92,ENE,57,2.0,6.0,82,0.00,,,0.01,0,Wunderground v.1.15,2013-05-09 05:50:00,
2013-05-09 00:55:00,65.0,59.7,29.93,NNE,24,1.0,6.0,83,0.00,,,0.01,0,Wunderground v.1.15,2013-05-09 05:55:00,
2013-05-09 01:05:00,64.9,59.9,29.93,NNE,18,0.0,5.0,84,0.00,,,0.01,0,Wunderground v.1.15,2013-05-09 06:05:00,
2013-05-09 01:10:00,64.9,59.9,29.92,NNE,18,0.0,0.0,84,0.00,,,0.01,0,Wunderground v.1.15,2013-05-09 06:10:00,
2013-05-09 01:15:00,64.6,59.7,29.92,NNE,18,0.0,0.0,84,0.00,,,0.01,0,Wunderground v.1.15,2013-05-09 06:15:00,
2013-05-09 01:25:00,63.9,59.0,29.90,ENE,76,1.0,1.0,84,0.00,,,0.01,0,Wunderground v.1.15,2013-05-09 06:25:00,
2013-05-09 01:30:00,63.5,58.9,29.90,East,81,2.0,2.0,85,0.00,,,0.02,0,Wunderground v.1.15,2013-05-09 06:30:00,
2013-05-09 01:35:00,63.2,58.9,29.89,ENE,72,3.0,6.0,86,0.00,,,0.02,0,Wunderground v.1.15,2013-05-09 06:35:00,
2013-05-09 01:45:00,62.9,59.0,29.91,ESE,117,2.0,10.0,87,0.67,,,0.04,0,Wunderground v.1.15,2013-05-09 06:45:00,
2013-05-09 01:50:00,62.9,59.3,29.91,NE,50,0.0,2.0,88,0.30,,,0.13,0,Wunderground v.1.15,2013-05-09 06:50:00,
2013-05-09 01:55:00,62.7,59.4,29.93,WSW,254,1.0,10.0,89,0.08,,,0.13,0,Wunderground v.1.15,2013-05-09 06:55:00,
2013-05-09 02:00:00,62.3,59.3,29.94,WNW,295,4.0,18.0,90,0.05,,,0.13,0,Wunderground v.1.15,2013-05-09 07:00:00,
2013-05-09 02:10:00,62.1,59.1,29.93,NW,315,2.0,9.0,90,0.00,,,0.13,0,Wunderground v.1.15,2013-05-09 07:10:00,
2013-05-09 02:20:00,61.8,59.1,29.93,NW,323,2.0,7.0,91,0.00,,,0.13,0,Wunderground v.1.15,2013-05-09 07:20:00,
2013-05-09 02:25:00,61.7,59.0,29.93,North,350,3.0,7.0,91,0.00,,,0.13,0,Wunderground v.1.15,2013-05-09 07:25:00,
2013-05-09 02:30:00,61.7,59.0,29.93,North,350,1.0,1.0,91,0.00,,,0.00,0,Wunderground v.1.15,2013-05-09 07:30:00,
2013-05-09 02:40:00,61.6,59.3,29.92,North,5,2.0,2.0,92,0.00,,,0.00,0,Wunderground v.1.15,2013-05-09 07:40:00,
2013-05-09 02:45:00,61.6,59.3,29.92,North,9,1.0,9.0,92,0.00,,,0.00,0,Wunderground v.1.15,2013-05-09 07:45:00,
2013-05-09 02:55:00,61.4,59.1,29.91,NNE,33,4.0,11.0,92,0.00,,,0.00,0,Wunderground v.1.15,2013-05-09 07:55:00,
2013-05-09 03:01:00,61.4,59.1,29.92,NNE,32,5.0,11.0,92,0.00,,,0.00,0,Wunderground v.1.15,2013-05-09 08:01:00,
2013-05-09 03:10:00,61.3,59.3,29.91,NE,38,4.0,11.0,93,0.00,,,0.00,0,Wunderground v.1.15,2013-05-09 08:10:00,
2013-05-09 03:15:00,61.3,59.3,29.91,NE,47,2.0,2.0,93,0.00,,,0.00,0,Wunderground v.1.15,2013-05-09 08:15:00,
2013-05-09 03:25:00,61.3,59.3,29.90,NE,54,0.0,0.0,93,0.00,,,0.00,0,Wunderground v.1.15,2013-05-09 08:25:00,
2013-05-09 03:30:00,61.2,59.2,29.90,NE,53,1.0,1.0,93,0.00,,,0.00,0,Wunderground v.1.15,2013-05-09 08:30:00,
2013-05-09 03:35:00,61.1,59.1,29.90,NE,53,1.0,1.0,93,0.00,,,0.00,0,Wunderground v.1.15,2013-05-09 08:35:00,
2013-05-09 03:40:00,61.1,59.1,29.89,NE,44,1.0,9.0,93,0.00,,,0.00,0,Wunderground v.1.15,2013-05-09 08:40:00,
2013-05-09 03:50:00,61.0,59.0,29.89,NE,50,0.0,1.0,93,0.00,,,0.00,0,Wunderground v.1.15,2013-05-09 08:50:00,
2013-05-09 03:55:00,61.1,59.1,29.89,NE,46,0.0,0.0,93,0.00,,,0.00,0,Wunderground v.1.15,2013-05-09 08:55:00,
2013-05-09 04:00:00,61.1,59.1,29.89,NE,46,0.0,0.0,93,0.00,,,0.01,0,Wunderground v.1.15,2013-05-09 09:00:00,
2013-05-09 04:05:00,61.1,59.1,29.89,NE,47,0.0,0.0,93,0.00,,,0.01,0,Wunderground v.1.15,2013-05-09 09:05:00,
2013-05-09 04:15:00,61.0,59.0,29.89,NE,49,0.0,0.0,93,0.00,,,0.01,0,Wunderground v.1.15,2013-05-09 09:15:00,
2013-05-09 04:20:00,60.9,58.9,29.89,NE,51,0.0,0.0,93,0.00,,,0.01,0,Wunderground v.1.15,2013-05-09 09:20:00,
2013-05-09 04:25:00,60.9,58.9,29.89,NE,52,0.0,0.0,93,0.00,,,0.01,0,Wunderground v.1.15,2013-05-09 09:25:00,
2013-05-09 04:35:00,60.9,58.9,29.89,ENE,76,0.0,0.0,93,0.00,,,0.01,0,Wunderground v.1.15,2013-05-09 09:35:00,
2013-05-09 04:40:00,60.8,58.8,29.88,ENE,78,0.0,0.0,93,0.00,,,0.01,0,Wunderground v.1.15,2013-05-09 09:40:00,
2013-05-09 04:45:00,60.7,58.7,29.88,ENE,78,0.0,0.0,93,0.00,,,0.01,0,Wunderground v.1.15,2013-05-09 09:45:00,
2013-05-09 04:50:00,60.6,58.6,29.88,East,87,0.0,0.0,93,0.00,,,0.01,0,Wunderground v.1.15,2013-05-09 09:50:00,
2013-05-09 05:00:00,60.4,58.4,29.88,East,88,0.0,0.0,93,0.00,,,0.01,0,Wunderground v.1.15,2013-05-09 10:00:00,
2013-05-09 05:05:00,60.3,58.3,29.88,East,88,0.0,0.0,93,0.00,,,0.01,0,Wunderground v.1.15,2013-05-09 10:05:00,
2013-05-09 05:10:00,60.2,58.2,29.87,East,96,0.0,5.0,93,0.00,,,0.01,0,Wunderground v.1.15,2013-05-09 10:10:00,
2013-05-09 05:20:00,60.0,58.3,29.88,ESE,112,0.0,0.0,94,0.00,,,0.01,0,Wunderground v.1.15,2013-05-09 10:20:00,
2013-05-09 05:25:00,60.0,58.3,29.88,ESE,112,0.0,0.0,94,0.00,,,0.01,0,Wunderground v.1.15,2013-05-09 10:25:00,
2013-05-09 05:30:00,60.0,58.3,29.87,ESE,112,0.0,0.0,94,0.00,,,0.01,0,Wunderground v.1.15,2013-05-09 10:30:00,
2013-05-09 05:40:00,59.8,58.1,29.88,ESE,112,0.0,0.0,94,0.00,,,0.01,0,Wunderground v.1.15,2013-05-09 10:40:00,
2013-05-09 05:45:00,59.8,58.1,29.88,ESE,112,0.0,0.0,94,0.00,,,0.01,0,Wunderground v.1.15,2013-05-09 10:45:00,
2013-05-09 05:55:00,59.8,58.1,29.87,ESE,109,0.0,1.0,94,0.00,,,0.01,0,Wunderground v.1.15,2013-05-09 10:55:00,
2013-05-09 06:00:00,59.8,58.1,29.87,SE,124,0.0,0.0,94,0.00,,,0.01,0,Wunderground v.1.15,2013-05-09 11:00:00,
2013-05-09 06:05:00,59.8,58.1,29.87,ESE,122,0.0,0.0,94,0.00,,,0.01,0,Wunderground v.1.15,2013-05-09 11:05:00,
2013-05-09 06:10:00,59.7,58.0,29.87,ESE,122,0.0,0.0,94,0.00,,,0.01,0,Wunderground v.1.15,2013-05-09 11:10:00,
2013-05-09 06:20:00,59.6,57.9,29.87,ESE,123,0.0,0.0,94,0.00,,,0.01,5,Wunderground v.1.15,2013-05-09 11:20:00,
2013-05-09 06:25:00,59.6,58.2,29.86,ESE,121,0.0,6.0,95,0.00,,,0.01,9,Wunderground v.1.15,2013-05-09 11:25:00,
2013-05-09 06:30:00,59.5,58.1,29.86,ESE,120,1.0,1.0,95,0.00,,,0.01,12,Wunderground v.1.15,2013-05-09 11:30:00,
2013-05-09 06:35:00,59.5,58.1,29.86,ESE,120,0.0,1.0,95,0.00,,,0.01,18,Wunderground v.1.15,2013-05-09 11:35:00,
2013-05-09 06:45:00,59.5,58.1,29.87,ESE,123,0.0,0.0,95,0.00,,,0.01,23,Wunderground v.1.15,2013-05-09 11:45:00,
2013-05-09 06:55:00,59.5,58.1,29.87,SE,136,0.0,5.0,95,0.00,,,0.01,23,Wunderground v.1.15,2013-05-09 11:55:00,
2013-05-09 07:05:00,59.6,58.2,29.86,ESE,123,2.0,6.0,95,0.00,,,0.01,32,Wunderground v.1.15,2013-05-09 12:05:00,
2013-05-09 07:10:00,59.6,57.9,29.85,ESE,123,3.0,10.0,94,0.00,,,0.01,32,Wunderground v.1.15,2013-05-09 12:10:00,
2013-05-09 07:15:00,59.7,58.0,29.86,SE,132,3.0,10.0,94,0.00,,,0.01,37,Wunderground v.1.15,2013-05-09 12:15:00,
2013-05-09 07:25:00,59.8,58.1,29.86,SE,132,0.0,1.0,94,0.00,,,0.01,35,Wunderground v.1.15,2013-05-09 12:25:00,
2013-05-09 07:30:00,59.9,58.2,29.86,SE,132,0.0,0.0,94,0.00,,,0.01,33,Wunderground v.1.15,2013-05-09 12:30:00,
2013-05-09 07:35:00,59.9,58.2,29.87,SE,132,0.0,0.0,94,0.00,,,0.01,35,Wunderground v.1.15,2013-05-09 12:35:00,
2013-05-09 07:45:00,60.0,58.3,29.87,SE,132,0.0,0.0,94,0.00,,,0.01,32,Wunderground v.1.15,2013-05-09 12:45:00,
2013-05-09 07:50:00,60.0,58.3,29.88,SE,132,0.0,0.0,94,0.00,,,0.01,33,Wunderground v.1.15,2013-05-09 12:50:00,
2013-05-09 07:55:00,60.1,58.4,29.88,SE,132,0.0,0.0,94,0.00,,,0.01,35,Wunderground v.1.15,2013-05-09 12:55:00,
2013-05-09 08:05:00,60.3,58.6,29.88,SE,132,0.0,0.0,94,0.00,,,0.02,32,Wunderground v.1.15,2013-05-09 13:05:00,
2013-05-09 08:10:00,60.3,58.6,29.88,SE,132,0.0,0.0,94,0.00,,,0.02,32,Wunderground v.1.15,2013-05-09 13:10:00,
2013-05-09 08:20:00,60.3,58.6,29.88,SE,132,0.0,0.0,94,0.00,,,0.02,46,Wunderground v.1.15,2013-05-09 13:20:00,
2013-05-09 08:25:00,60.3,58.6,29.88,SE,130,0.0,4.0,94,0.00,,,0.02,51,Wunderground v.1.15,2013-05-09 13:25:00,
2013-05-09 08:35:00,60.4,58.7,29.88,SE,130,0.0,0.0,94,0.00,,,0.02,62,Wunderground v.1.15,2013-05-09 13:35:00,
2013-05-09 08:45:00,60.5,58.8,29.88,SE,130,0.0,0.0,94,0.00,,,0.02,91,Wunderground v.1.15,2013-05-09 13:45:00,
2013-05-09 08:50:00,60.6,58.9,29.88,SE,130,0.0,0.0,94,0.00,,,0.03,111,Wunderground v.1.15,2013-05-09 13:50:00,
2013-05-09 08:55:00,60.7,59.0,29.88,SE,130,0.0,0.0,94,0.00,,,0.03,132,Wunderground v.1.15,2013-05-09 13:55:00,
2013-05-09 09:00:00,60.8,59.1,29.88,SE,130,0.0,5.0,94,0.00,,,0.03,149,Wunderground v.1.15,2013-05-09 14:00:00,
2013-05-09 09:10:00,61.1,59.7,29.88,SE,130,0.0,0.0,95,0.00,,,0.03,144,Wunderground v.1.15,2013-05-09 14:10:00,
2013-05-09 09:15:00,61.2,59.5,29.88,SE,134,0.0,0.0,94,0.00,,,0.03,135,Wunderground v.1.15,2013-05-09 14:15:00,
2013-05-09 09:20:00,61.2,59.5,29.88,SE,138,0.0,5.0,94,0.00,,,0.03,132,Wunderground v.1.15,2013-05-09 14:20:00,
2013-05-09 09:30:00,61.4,59.7,29.88,SE,137,0.0,0.0,94,0.00,,,0.03,116,Wunderground v.1.15,2013-05-09 14:30:00,
2013-05-09 09:35:00,61.7,60.3,29.88,SE,137,0.0,0.0,95,0.00,,,0.03,109,Wunderground v.1.15,2013-05-09 14:35:00,
2013-05-09 09:45:00,62.0,60.3,29.88,SE,140,0.0,0.0,94,0.00,,,0.03,128,Wunderground v.1.15,2013-05-09 14:45:00,
2013-05-09 09:50:00,62.1,60.4,29.88,SSE,158,1.0,7.0,94,0.00,,,0.03,146,Wunderground v.1.15,2013-05-09 14:50:00,
2013-05-09 09:55:00,62.3,60.6,29.88,SSE,157,1.0,7.0,94,0.00,,,0.03,172,Wunderground v.1.15,2013-05-09 14:55:00,
2013-05-09 10:00:00,62.5,60.4,29.88,SSE,159,0.0,0.0,93,0.00,,,0.03,195,Wunderground v.1.15,2013-05-09 15:00:00,
2013-05-09 10:10:00,63.0,60.9,29.89,South,185,0.0,0.0,93,0.00,,,0.03,251,Wunderground v.1.15,2013-05-09 15:10:00,
2013-05-09 10:15:00,63.5,61.4,29.89,SSW,197,0.0,0.0,93,0.00,,,0.03,264,Wunderground v.1.15,2013-05-09 15:15:00,
2013-05-09 10:25:00,65.0,62.3,29.89,West,261,1.0,6.0,91,0.00,,,0.03,250,Wunderground v.1.15,2013-05-09 15:25:00,
2013-05-09 10:30:00,65.2,61.9,29.89,WSW,247,1.0,5.0,89,0.00,,,0.03,279,Wunderground v.1.15,2013-05-09 15:30:00,
2013-05-09 10:40:00,65.3,62.0,29.90,WSW,244,4.0,4.0,89,0.00,,,0.03,380,Wunderground v.1.15,2013-05-09 15:40:00,
2013-05-09 10:45:00,65.9,62.2,29.89,WSW,242,4.0,11.0,88,0.00,,,0.03,443,Wunderground v.1.15,2013-05-09 15:45:00,
2013-05-09 10:50:00,66.1,62.1,29.89,WSW,247,5.0,13.0,87,0.00,,,0.03,461,Wunderground v.1.15,2013-05-09 15:50:00,
2013-05-09 11:00:00,66.4,62.1,29.89,SW,234,3.0,11.0,86,0.00,,,0.03,287,Wunderground v.1.15,2013-05-09 16:00:00,
2013-05-09 11:05:00,66.9,62.2,29.89,WSW,252,1.0,11.0,85,0.00,,,0.03,269,Wunderground v.1.15,2013-05-09 16:05:00,
2013-05-09 11:10:00,67.4,62.7,29.89,West,267,2.0,2.0,85,0.00,,,0.03,257,Wunderground v.1.15,2013-05-09 16:10:00,
2013-05-09 11:20:00,69.0,63.6,29.89,WSW,248,2.0,10.0,83,0.00,,,0.03,392,Wunderground v.1.15,2013-05-09 16:20:00,
2013-05-09 11:25:00,69.3,63.2,29.89,WSW,248,2.0,10.0,81,0.00,,,0.03,404,Wunderground v.1.15,2013-05-09 16:25:00,
2013-05-09 11:30:00,69.7,63.3,29.89,WSW,244,2.0,10.0,80,0.00,,,0.03,399,Wunderground v.1.15,2013-05-09 16:30:00,
2013-05-09 11:40:00,70.1,64.0,29.89,WSW,258,2.0,2.0,81,0.00,,,0.03,287,Wunderground v.1.15,2013-05-09 16:40:00,
2013-05-09 11:45:00,70.7,63.5,29.89,WSW,254,3.0,3.0,78,0.00,,,0.03,387,Wunderground v.1.15,2013-05-09 16:45:00,
2013-05-09 11:55:00,71.0,63.1,29.88,WSW,257,1.0,6.0,76,0.00,,,0.03,267,Wunderground v.1.15,2013-05-09 16:55:00,
2013-05-09 12:05:00,72.1,63.0,29.88,West,277,1.0,6.0,73,0.00,,,0.03,860,Wunderground v.1.15,2013-05-09 17:05:00,
2013-05-09 12:10:00,72.5,63.0,29.88,WSW,248,2.0,2.0,72,0.00,,,0.03,949,Wunderground v.1.15,2013-05-09 17:10:00,
2013-05-09 12:15:00,73.0,61.4,29.88,SW,225,3.0,8.0,67,0.00,,,0.03,962,Wunderground v.1.15,2013-05-09 17:15:00,
2013-05-09 12:20:00,73.0,61.4,29.88,West,279,5.0,13.0,67,0.00,,,0.03,977,Wunderground v.1.15,2013-05-09 17:20:00,
2013-05-09 12:30:00,72.9,61.3,29.88,WSW,240,6.0,6.0,67,0.00,,,0.03,766,Wunderground v.1.15,2013-05-09 17:30:00,
2013-05-09 12:35:00,72.9,61.3,29.88,SW,225,5.0,15.0,67,0.00,,,0.03,893,Wunderground v.1.15,2013-05-09 17:35:00,
2013-05-09 12:45:00,74.0,61.5,29.88,WSW,255,4.0,11.0,65,0.00,,,0.03,561,Wunderground v.1.15,2013-05-09 17:45:00,
2013-05-09 12:50:00,74.0,60.2,29.88,WSW,240,4.0,4.0,62,0.00,,,0.03,1020,Wunderground v.1.15,2013-05-09 17:50:00,
2013-05-09 12:55:00,74.4,60.5,29.88,WSW,256,5.0,5.0,62,0.00,,,0.03,979,Wunderground v.1.15,2013-05-09 17:55:00,
2013-05-09 13:05:00,75.2,60.8,29.87,West,272,4.0,11.0,61,0.00,,,0.03,1039,Wunderground v.1.15,2013-05-09 18:05:00,
2013-05-09 13:10:00,75.8,60.9,29.87,West,277,4.0,13.0,60,0.00,,,0.03,898,Wunderground v.1.15,2013-05-09 18:10:00,
2013-05-09 13:15:00,76.2,59.9,29.87,WSW,239,5.0,14.0,57,0.00,,,0.03,946,Wunderground v.1.15,2013-05-09 18:15:00,
2013-05-09 13:25:00,75.5,59.2,29.87,SW,227,6.0,15.0,57,0.00,,,0.03,313,Wunderground v.1.15,2013-05-09 18:25:00,
2013-05-09 13:30:00,74.9,59.1,29.88,WSW,255,8.0,8.0,58,0.00,,,0.03,1097,Wunderground v.1.15,2013-05-09 18:30:00,
2013-05-09 13:40:00,76.0,59.7,29.87,West,260,7.0,7.0,57,0.00,,,0.03,1179,Wunderground v.1.15,2013-05-09 18:40:00,
2013-05-09 13:50:00,75.8,59.5,29.88,WSW,257,8.0,8.0,57,0.00,,,0.03,763,Wunderground v.1.15,2013-05-09 18:50:00,
2013-05-09 13:55:00,75.5,60.2,29.87,WSW,243,8.0,13.0,59,0.00,,,0.03,292,Wunderground v.1.15,2013-05-09 18:55:00,
2013-05-09 14:05:00,75.9,61.0,29.87,West,264,4.0,9.0,60,0.00,,,0.03,322,Wunderground v.1.15,2013-05-09 19:05:00,
2013-05-09 14:15:00,76.0,59.7,29.87,WSW,240,5.0,5.0,57,0.00,,,0.03,169,Wunderground v.1.15,2013-05-09 19:15:00,
2013-05-09 14:25:00,75.0,59.7,29.86,WSW,250,6.0,11.0,59,0.00,,,0.03,272,Wunderground v.1.15,2013-05-09 19:25:00,
2013-05-09 14:30:00,75.2,59.4,29.86,WNW,284,5.0,12.0,58,0.00,,,0.03,251,Wunderground v.1.15,2013-05-09 19:30:00,
2013-05-09 14:40:00,76.3,59.4,29.85,WSW,253,8.0,8.0,56,0.00,,,0.03,1025,Wunderground v.1.15,2013-05-09 19:40:00,
2013-05-09 14:45:00,76.7,59.8,29.85,WSW,247,7.0,13.0,56,0.00,,,0.03,239,Wunderground v.1.15,2013-05-09 19:45:00,
2013-05-09 14:50:00,77.3,59.4,29.85,WSW,254,6.0,15.0,54,0.00,,,0.03,1107,Wunderground v.1.15,2013-05-09 19:50:00,
2013-05-09 15:00:00,77.0,57.5,29.85,West,266,11.0,11.0,51,0.00,,,0.03,1051,Wunderground v.1.15,2013-05-09 20:00:00,
2013-05-09 15:05:00,77.1,58.6,29.85,WNW,287,10.0,18.0,53,0.00,,,0.03,969,Wunderground v.1.15,2013-05-09 20:05:00,
2013-05-09 15:10:00,77.4,57.9,29.85,NW,317,10.0,21.0,51,0.00,,,0.03,967,Wunderground v.1.15,2013-05-09 20:10:00,
2013-05-09 15:15:00,77.4,57.9,29.85,NW,310,12.0,21.0,51,0.00,,,0.03,988,Wunderground v.1.15,2013-05-09 20:15:00,
2013-05-09 15:25:00,77.4,57.9,29.86,WSW,246,10.0,19.0,51,0.00,,,0.03,239,Wunderground v.1.15,2013-05-09 20:25:00,
2013-05-09 15:30:00,76.9,57.9,29.86,NW,304,9.0,9.0,52,0.00,,,0.03,299,Wunderground v.1.15,2013-05-09 20:30:00,
2013-05-09 15:35:00,76.7,58.3,29.85,WNW,296,8.0,14.0,53,0.00,,,0.03,264,Wunderground v.1.15,2013-05-09 20:35:00,
2013-05-09 15:45:00,77.0,59.1,29.86,WNW,298,6.0,12.0,54,0.00,,,0.03,919,Wunderground v.1.15,2013-05-09 20:45:00,
2013-05-09 15:50:00,77.5,58.5,29.86,WNW,288,5.0,5.0,52,0.00,,,0.03,174,Wunderground v.1.15,2013-05-09 20:50:00,
2013-05-09 16:00:00,76.1,58.2,29.86,West,272,5.0,5.0,54,0.00,,,0.03,90,Wunderground v.1.15,2013-05-09 21:00:00,
2013-05-09 16:05:00,75.7,58.4,29.86,West,273,5.0,11.0,55,0.00,,,0.03,69,Wunderground v.1.15,2013-05-09 21:05:00,
2013-05-09 16:10:00,75.3,58.0,29.86,West,259,4.0,12.0,55,0.00,,,0.03,100,Wunderground v.1.15,2013-05-09 21:10:00,
2013-05-09 16:20:00,75.1,58.3,29.86,West,260,3.0,11.0,56,0.00,,,0.03,116,Wunderground v.1.15,2013-05-09 21:20:00,
2013-05-09 16:25:00,74.7,58.9,29.87,West,277,4.0,13.0,58,0.00,,,0.03,151,Wunderground v.1.15,2013-05-09 21:25:00,
2013-05-09 16:30:00,74.4,60.1,29.86,WNW,282,4.0,4.0,61,0.00,,,0.03,253,Wunderground v.1.15,2013-05-09 21:30:00,
2013-05-09 16:40:00,74.1,60.2,29.87,WNW,282,3.0,14.0,62,0.00,,,0.03,183,Wunderground v.1.15,2013-05-09 21:40:00,
2013-05-09 16:45:00,73.9,60.1,29.86,West,268,4.0,14.0,62,0.00,,,0.03,176,Wunderground v.1.15,2013-05-09 21:45:00,
2013-05-09 16:55:00,74.4,61.0,29.86,NW,307,4.0,13.0,63,0.00,,,0.03,160,Wunderground v.1.15,2013-05-09 21:55:00,
2013-05-09 17:00:00,74.4,61.0,29.86,WNW,301,4.0,12.0,63,0.00,,,0.03,97,Wunderground v.1.15,2013-05-09 22:00:00,
2013-05-09 17:05:00,74.3,61.8,29.86,NW,311,4.0,12.0,65,0.00,,,0.03,62,Wunderground v.1.15,2013-05-09 22:05:00,
2013-05-09 17:15:00,73.2,60.7,29.86,WNW,286,6.0,15.0,65,0.00,,,0.03,44,Wunderground v.1.15,2013-05-09 22:15:00,
2013-05-09 17:20:00,72.6,61.0,29.87,WNW,296,7.0,7.0,67,0.00,,,0.03,40,Wunderground v.1.15,2013-05-09 22:20:00,
2013-05-09 17:30:00,71.6,61.3,29.87,West,273,3.0,3.0,70,0.00,,,0.03,25,Wunderground v.1.15,2013-05-09 22:30:00,
2013-05-09 17:35:00,71.3,61.4,29.87,West,272,1.0,3.0,71,0.00,,,0.03,23,Wunderground v.1.15,2013-05-09 22:35:00,
2013-05-09 17:40:00,71.0,61.5,29.88,WSW,238,1.0,12.0,72,0.00,,,0.03,26,Wunderground v.1.15,2013-05-09 22:40:00,
2013-05-09 17:50:00,69.1,61.2,29.88,SSW,198,4.0,12.0,76,0.00,,,0.03,56,Wunderground v.1.15,2013-05-09 22:50:00,
2013-05-09 17:55:00,68.4,61.6,29.88,SSW,200,3.0,12.0,79,0.00,,,0.03,74,Wunderground v.1.15,2013-05-09 22:55:00,
2013-05-09 18:00:00,68.1,61.7,29.88,SSW,202,2.0,2.0,80,0.00,,,0.03,95,Wunderground v.1.15,2013-05-09 23:00:00,
2013-05-09 18:10:00,67.0,61.3,29.88,SSE,167,1.0,1.0,82,0.00,,,0.03,410,Wunderground v.1.15,2013-05-09 23:10:00,
2013-05-09 18:15:00,67.7,62.0,29.89,South,181,0.0,1.0,82,0.00,,,0.03,137,Wunderground v.1.15,2013-05-09 23:15:00,
2013-05-09 18:25:00,67.5,61.5,29.89,SSW,198,2.0,2.0,81,0.00,,,0.03,60,Wunderground v.1.15,2013-05-09 23:25:00,
2013-05-09 18:30:00,67.3,61.6,29.89,SW,232,1.0,6.0,82,0.00,,,0.03,33,Wunderground v.1.15,2013-05-09 23:30:00,
2013-05-09 18:40:00,67.0,61.7,29.88,SW,236,3.0,3.0,83,0.20,,,0.05,33,Wunderground v.1.15,2013-05-09 23:40:00,
2013-05-09 18:45:00,66.5,61.5,29.89,WSW,244,2.0,6.0,84,0.07,,,0.05,37,Wunderground v.1.15,2013-05-09 23:45:00,
2013-05-09 18:50:00,66.1,61.8,29.89,WSW,240,0.0,4.0,86,0.38,,,0.08,30,Wunderground v.1.15,2013-05-09 23:50:00,
2013-05-09 19:00:00,65.6,61.6,29.89,WSW,242,0.0,0.0,87,0.11,,,0.10,28,Wunderground v.1.15,2013-05-10 00:00:00,
2013-05-09 19:10:00,65.8,62.5,29.88,WSW,242,0.0,0.0,89,0.04,,,0.10,121,Wunderground v.1.15,2013-05-10 00:10:00,
2013-05-09 19:15:00,66.3,62.6,29.89,WSW,242,0.0,0.0,88,0.00,,,0.10,84,Wunderground v.1.15,2013-05-10 00:15:00,
2013-05-09 19:25:00,66.2,62.9,29.88,WSW,243,0.0,0.0,89,0.00,,,0.10,114,Wunderground v.1.15,2013-05-10 00:25:00,
2013-05-09 19:35:00,67.0,63.3,29.88,WSW,252,0.0,0.0,88,0.00,,,0.10,70,Wunderground v.1.15,2013-05-10 00:35:00,
2013-05-09 19:40:00,66.9,63.2,29.88,WSW,252,0.0,0.0,88,0.00,,,0.10,58,Wunderground v.1.15,2013-05-10 00:40:00,
2013-05-09 19:45:00,66.8,62.8,29.88,WSW,252,0.0,0.0,87,0.00,,,0.10,53,Wunderground v.1.15,2013-05-10 00:45:00,
2013-05-09 19:55:00,66.7,62.7,29.88,WSW,252,0.0,0.0,87,0.00,,,0.10,39,Wunderground v.1.15,2013-05-10 00:55:00,
2013-05-09 20:05:00,67.0,62.7,29.88,WSW,252,0.0,0.0,86,0.00,,,0.10,23,Wunderground v.1.15,2013-05-10 01:05:00,
2013-05-09 20:10:00,67.0,62.7,29.88,WSW,252,0.0,0.0,86,0.00,,,0.10,18,Wunderground v.1.15,2013-05-10 01:10:00,
2013-05-09 20:20:00,66.2,61.6,29.88,WSW,252,0.0,0.0,85,0.00,,,0.10,9,Wunderground v.1.15,2013-05-10 01:20:00,
2013-05-09 20:25:00,65.9,61.6,29.88,WSW,252,0.0,0.0,86,0.00,,,0.10,0,Wunderground v.1.15,2013-05-10 01:25:00,
2013-05-09 20:30:00,65.9,61.9,29.89,WSW,253,0.0,3.0,87,0.00,,,0.10,0,Wunderground v.1.15,2013-05-10 01:30:00,
2013-05-09 20:35:00,66.0,61.7,29.89,WSW,253,0.0,0.0,86,0.00,,,0.10,0,Wunderground v.1.15,2013-05-10 01:35:00,
2013-05-09 20:45:00,65.3,61.3,29.90,WSW,253,0.0,0.0,87,0.00,,,0.10,0,Wunderground v.1.15,2013-05-10 01:45:00,
2013-05-09 20:50:00,65.2,61.2,29.90,WSW,253,0.0,0.0,87,0.00,,,0.10,0,Wunderground v.1.15,2013-05-10 01:50:00,
2013-05-09 21:00:00,65.5,61.5,29.90,WSW,253,0.0,0.0,87,0.00,,,0.10,0,Wunderground v.1.15,2013-05-10 02:00:00,
2013-05-09 21:05:00,65.7,61.7,29.90,WSW,253,0.0,0.0,87,0.00,,,0.10,0,Wunderground v.1.15,2013-05-10 02:05:00,
2013-05-09 21:10:00,65.6,61.3,29.90,WSW,253,0.0,0.0,86,0.00,,,0.10,0,Wunderground v.1.15,2013-05-10 02:10:00,
2013-05-09 21:20:00,65.4,61.4,29.91,WSW,253,0.0,0.0,87,0.00,,,0.10,0,Wunderground v.1.15,2013-05-10 02:20:00,
2013-05-09 21:25:00,65.2,61.6,29.91,WSW,253,0.0,0.0,88,0.00,,,0.10,0,Wunderground v.1.15,2013-05-10 02:25:00,
2013-05-09 21:30:00,65.0,61.4,29.90,WSW,253,0.0,0.0,88,0.00,,,0.10,0,Wunderground v.1.15,2013-05-10 02:30:00,
2013-05-09 21:40:00,64.6,61.0,29.91,WSW,253,0.0,0.0,88,0.00,,,0.10,0,Wunderground v.1.15,2013-05-10 02:40:00,
2013-05-09 21:45:00,64.6,61.3,29.91,WSW,253,0.0,0.0,89,0.00,,,0.10,0,Wunderground v.1.15,2013-05-10 02:45:00,
2013-05-09 21:55:00,64.4,61.1,29.91,WSW,253,0.0,0.0,89,0.00,,,0.10,0,Wunderground v.1.15,2013-05-10 02:55:00,
2013-05-09 22:00:00,64.5,61.5,29.91,WSW,253,0.0,0.0,90,0.00,,,0.10,0,Wunderground v.1.15,2013-05-10 03:00:00,
2013-05-09 22:10:00,64.6,61.6,29.92,WSW,253,0.0,0.0,90,0.00,,,0.10,0,Wunderground v.1.15,2013-05-10 03:10:00,
2013-05-09 22:15:00,64.6,61.6,29.92,WSW,253,0.0,0.0,90,0.00,,,0.10,0,Wunderground v.1.15,2013-05-10 03:15:00,
2013-05-09 22:20:00,64.5,61.2,29.92,WSW,253,0.0,0.0,89,0.00,,,0.10,0,Wunderground v.1.15,2013-05-10 03:20:00,
2013-05-09 22:30:00,64.4,61.1,29.92,WSW,253,0.0,0.0,89,0.00,,,0.10,0,Wunderground v.1.15,2013-05-10 03:30:00,
2013-05-09 22:35:00,64.3,60.7,29.92,WSW,253,0.0,0.0,88,0.00,,,0.10,0,Wunderground v.1.15,2013-05-10 03:35:00,
2013-05-09 22:45:00,64.8,61.8,29.92,WSW,253,0.0,0.0,90,0.00,,,0.10,0,Wunderground v.1.15,2013-05-10 03:45:00,
2013-05-09 22:50:00,64.8,61.5,29.92,WSW,253,0.0,0.0,89,0.00,,,0.10,0,Wunderground v.1.15,2013-05-10 03:50:00,
2013-05-09 22:55:00,64.5,61.2,29.92,WSW,253,0.0,0.0,89,0.00,,,0.10,0,Wunderground v.1.15,2013-05-10 03:55:00,
2013-05-09 23:00:00,64.2,60.9,29.93,WSW,253,0.0,0.0,89,0.00,,,0.10,0,Wunderground v.1.15,2013-05-10 04:00:00,
2013-05-09 23:05:00,64.0,60.7,29.93,WSW,253,0.0,0.0,89,0.00,,,0.10,0,Wunderground v.1.15,2013-05-10 04:05:00,
2013-05-09 23:10:00,64.0,61.0,29.93,WSW,253,0.0,0.0,90,0.00,,,0.10,0,Wunderground v.1.15,2013-05-10 04:10:00,
2013-05-09 23:15:00,63.9,60.9,29.93,WSW,253,0.0,0.0,90,0.00,,,0.10,0,Wunderground v.1.15,2013-05-10 04:15:00,
2013-05-09 23:25:00,63.5,60.5,29.93,WSW,253,0.0,0.0,90,0.00,,,0.10,0,Wunderground v.1.15,2013-05-10 04:25:00,
2013-05-09 23:30:00,63.5,60.8,29.92,WSW,253,0.0,0.0,91,0.00,,,0.10,0,Wunderground v.1.15,2013-05-10 04:30:00,
2013-05-09 23:35:00,63.6,60.6,29.92,WSW,253,0.0,0.0,90,0.00,,,0.10,0,Wunderground v.1.15,2013-05-10 04:35:00,
2013-05-09 23:45:00,63.0,60.0,29.92,WSW,253,0.0,0.0,90,0.00,,,0.10,0,Wunderground v.1.15,2013-05-10 04:45:00,
2013-05-09 23:50:00,62.6,59.6,29.92,WSW,253,0.0,0.0,90,0.00,,,0.10,0,Wunderground v.1.15,2013-05-10 04:50:00,
2013-05-09 23:55:00,62.6,59.9,29.92,WSW,253,0.0,0.0,91,0.00,,,0.10,0,Wunderground v.1.15,2013-05-10 04:55:00,